Tracking 32963 objects as of 21-Jan-2026
HD Live streaming from Space Station
objects crossing your sky now

STARLINK-1669

Track STARLINK-1669 now!
10-day predictions
STARLINK-1669 is classified as:


NORAD ID: 47624
Int'l Code: 2021-012E
Perigee: 400.7 km
Apogee: 409.7 km
Inclination: 53.0 °
Period: 92.5 minutes
Semi major axis: 6776 km
RCS: Unknown
Launch date: February 16, 2021
Source: United States (US)
Launch site: AIR FORCE EASTERN TEST RANGE (AFETR)
Your satellite tracking list
Your tracking list is empty




NASA's NSSDC Master Catalog

Two Line Element Set (TLE):
1 47624U 21012E   26020.74252638  .00329108  00000-0  43958-2 0  9990
2 47624  53.0421 227.2411 0006583 144.5232 215.6218 15.56407633273616
Source of the keplerian elements: AFSPC